Weather History for KMTW - November, 2013

Change the Weather History Date:

Wednesday, November 20, 2013

  Actual Average Record
Temperature  
Mean Temperature 40 °F -  
Max Temperature 42 °F 41 °F 64 °F (2003)
Min Temperature 39 °F 28 °F 10 °F (1964)
Degree Days  
Heating Degree Days 24    
Moisture  
Dew Point 33 °F    
Average Humidity 77    
Maximum Humidity 89    
Minimum Humidity 70    
Precipitation  
Precipitation 0.04 in - - ()
Sea Level Pressure  
Sea Level Pressure 30.26 in    
Wind  
Wind Speed 17 mph (South)    
Max Wind Speed 26 mph    
Max Gust Speed 33 mph    
Visibility 10 miles    
Events Rain    
Averages and records for this station are not official NWS values.
T = Trace of Precipitation, MM = Missing Value Source: NWS Daily Summary

Daily Weather History Graph

Daily Weather History Graph

Search for Another Location

Airport or City:

Trip Planner

Search our weather history database for the weather conditions in past years. The results will help you decide how hot, cold, wet, or windy it might be!

Date:

Astronomy

Nov. 20, 2013 Rise Set
Actual Time 6:52 AM CST 4:19 PM CST
Civil Twilight 6:21 AM CST 4:51 PM CST
Nautical Twilight 5:45 AM CST 5:26 PM CST
Astronomical Twilight 5:11 AM CST 6:01 PM CST
Moon 7:02 PM CST (11/20) 9:18 AM CST (11/20)
Length of Visible Light 10h 30m
Length of Day
9h 26m
Waning Gibbous, 91% of the Moon is Illuminated
Nov 20
Waning Gibbous
Nov 25
Last Quarter
Dec 2
New
Dec 9
First Quarter
Dec 17
Full

Hourly Weather History & Observations

Time (CST) Temp. Windchill Dew Point Humidity Pressure Visibility Wind Dir Wind Speed Gust Speed Precip Events Conditions
12:56 AM 39.9 °F 32.1 °F 34.0 °F 79% 30.32 in 10.0 mi South 13.8 mph - 0.01 in   Clear
1:56 AM 39.9 °F 31.4 °F 34.0 °F 79% 30.34 in 10.0 mi South 16.1 mph 24.2 mph N/A   Clear
2:56 AM 39.9 °F 31.4 °F 34.0 °F 79% 30.33 in 10.0 mi South 16.1 mph - N/A   Clear
3:56 AM 39.0 °F 30.6 °F 34.0 °F 82% 30.34 in 10.0 mi South 15.0 mph - 0.01 in   Clear
4:56 AM 39.0 °F 29.9 °F 33.1 °F 79% 30.33 in 10.0 mi South 17.3 mph - N/A   Clear
5:56 AM 39.0 °F 30.3 °F 33.1 °F 79% 30.32 in 10.0 mi South 16.1 mph 26.5 mph N/A   Clear
6:56 AM 39.0 °F 30.3 °F 33.1 °F 79% 30.31 in 10.0 mi South 16.1 mph - 0.01 in   Clear
7:52 AM 39.2 °F 29.6 °F 33.8 °F 81% 30.23 in 10.0 mi South 19.6 mph 28.8 mph N/A   Mostly Cloudy
7:56 AM 39.9 °F 29.7 °F 34.0 °F 79% 30.31 in 10.0 mi South 23.0 mph 32.2 mph N/A   Mostly Cloudy
8:56 AM 39.9 °F 30.2 °F 34.0 °F 79% 30.32 in 10.0 mi South 20.7 mph 31.1 mph 0.00 in   Overcast
9:56 AM 41.0 °F 30.9 °F 34.0 °F 76% 30.32 in 10.0 mi South 24.2 mph 32.2 mph N/A   Overcast
10:56 AM 41.0 °F 30.5 °F 33.1 °F 73% 30.31 in 10.0 mi South 26.5 mph 33.4 mph N/A   Overcast
11:17 AM 41.0 °F 31.6 °F 33.8 °F 76% 30.23 in 10.0 mi South 20.7 mph 32.2 mph N/A   Mostly Cloudy
11:56 AM 41.0 °F 31.1 °F 32.0 °F 70% 30.29 in 10.0 mi South 23.0 mph 27.6 mph 0.01 in   Partly Cloudy
12:56 PM 41.0 °F 30.5 °F 32.0 °F 70% 30.27 in 10.0 mi South 26.5 mph 32.2 mph N/A   Clear
1:56 PM 39.9 °F 31.1 °F 32.0 °F 73% 30.25 in 10.0 mi South 17.3 mph 23.0 mph N/A   Clear
2:56 PM 39.9 °F 31.8 °F 32.0 °F 73% 30.22 in 10.0 mi SSE 15.0 mph 24.2 mph N/A   Clear
3:56 PM 39.9 °F 32.5 °F 33.1 °F 77% 30.22 in 10.0 mi SSE 12.7 mph - N/A   Scattered Clouds
4:48 PM 39.2 °F 30.8 °F 32.0 °F 75% 30.14 in 10.0 mi SSE 15.0 mph - N/A   Overcast
4:56 PM 39.9 °F 32.9 °F 33.1 °F 77% 30.23 in 10.0 mi SSE 11.5 mph 23.0 mph N/A   Overcast
5:56 PM 41.0 °F 33.5 °F 32.0 °F 70% 30.23 in 10.0 mi South 13.8 mph - N/A   Overcast
6:56 PM 41.0 °F 35.2 °F 33.1 °F 73% 30.24 in 10.0 mi South 9.2 mph - N/A   Overcast
7:56 PM 41.0 °F 33.9 °F 33.1 °F 73% 30.20 in 10.0 mi SSE 12.7 mph - N/A   Overcast
8:56 PM 42.1 °F 36.1 °F 34.0 °F 73% 30.19 in 10.0 mi SSE 10.4 mph - 0.00 in   Overcast
9:56 PM 41.0 °F 34.7 °F 36.0 °F 82% 30.22 in 10.0 mi South 10.4 mph - 0.00 in Rain Light Rain
10:56 PM 39.9 °F 31.8 °F 35.1 °F 83% 30.22 in 10.0 mi South 15.0 mph - 0.00 in Rain Light Rain
11:56 PM 39.0 °F 31.4 °F 36.0 °F 89% 30.22 in 7.0 mi SSW 12.7 mph - 0.00 in Rain Light Rain